Location: Kalberh�ni
(46.4610°N, 7.2453°E)
Time: 00:42:32
(UTC+00:00)

Uosat 12 SS-18 rocket - Pass Details

Date: 20 June 2021
Orbit: 588 x 1397 km, 64.6° (Epoch: 25 July)

Event Time Altitude Azimuth Distance (km) Brightness Sun altitude
Exits shadow 21:34:42 - 217° (SW) 2,722 7.1 -15.2°
Reaches altitude 10° 21:36:34 10° 217° (SW) 1,957 6.4 -15.3°
Maximum altitude 21:40:55 86° 306° (NW) 667 4.2 -15.7°
Drops below altitude 10° 21:45:59 10° 37° (NE) 2,271 7.3 -16.0°
Sets 21:48:37 0° 38° (NE) 3,320 8.2 -16.2°
